(504705) = 2009 RT39 = 2011 CE119 = 2015 BG31

Discovered at Kitt Peak on 2009-09-15 by Spacewatch.

Orbit

Orbit type: Main Belt

Note: WebGL enabled browser required.

epoch2023-02-25.0
epoch JD2460000.5
perihelion date2021-12-07.72412
perihelion JD2459556.22412
argument of perihelion (°)123.42566
ascending node (°)269.44562
inclination (°)4.93280
eccentricity0.0862392
perihelion distance (AU)2.3011568
Tisserand w.r.t. Jupiter3.4
ΔV w.r.t. Earth (km/sec)9.6
semimajor axis (AU)2.5183360
mean anomaly (°)109.56859
mean daily motion (°/day)0.24662290
aphelion distance (AU)2.736
period (years)4.0
P-vector [x]0.83680099
P-vector [y]0.46944759
P-vector [z]0.28174999
Q-vector [x]-0.54071341
Q-vector [y]0.78940903
Q-vector [z]0.29062414
absolute magnitude17.86
phase slope0.15
uncertainty0
referenceMPEC 2023-F48
observations used132
oppositions10
arc length (days)4932
first opposition used2009
last opposition used2023
residual rms (arc-secs)0.85
perturbers coarse indicatorM-v
perturbers precise indicator003Ek
first observation date used2009-09-15.0
last observation date used2023-03-18.0
computer nameMPCLINUX
JD of orbit computation2458050.207022
perihelion JD uncertainty (days)1.7182E-04
argument of perihelion uncertainty (°)1.0426E-04
ascending node uncertainty (°)9.6390E-05
inclination uncertainty (°)4.6690E-06
eccentricity uncertainty 7.3892E-08
perihelion distance uncertainty (AU)1.8663E-07
Minimum Orbit Intersection Distances (in AU)
for orbit epoch: 2460000.5, reference: E2023-F48
Mercury1.97228
Venus1.58374
Earth1.31024
Mars0.81376
Jupiter2.61262
Saturn6.63494
Uranus15.7802
Neptune27.5623

Observations

136 total observations over interval: 2009 09 15.27563 – 2023 03 18.390725
These data are available for download (format description).

